Temp
18 18 18 18 18 18 18 17 17 17 17 17 17 16 16 16 16 16 16 16 16 16 16 16 16 16 16 16 16 16 16 16 16 16 16 16 16 16 16 16 16 16 15 16 16 16 16 16 16 16 15 15 15 15 15 15 15 15 15 15 15 14 14 14 14 14 14 14 14
18 18 18 18 18 18 18 18 17 17 17 17 17 17 17 16 16 16 16 16 16 16 16 16 16 16 16 16 16 16 16 16 16 16 16 16 16 16 16 16 16 16 16 16 16 16 16 16 16 16 15 15 15 15 15 15 15 15 15 15 15 14 14 14 14 14 14 14 14
18 18 18 18 18 18 18 18 18 18 17 17 17 17 17 17 17 16 16 16 16 16 16 16 16 16 16 16 16 16 16 16 16 16 16 16 16 16 16 16 16 16 16 16 16 16 16 16 16 15 15 15 15 15 15 15 15 15 15 15 14 14 14 14 14 14 14 14 14
18 18 18 18 18 18 18 18 18 18 18 18 17 17 17 17 17 17 17 17 16 16 16 16 16 16 16 16 16 16 16 16 16 16 16 16 16 16 16 16 16 16 16 16 16 16 16 16 15 15 15 15 15 15 15 15 15 15 14 14 14 14 14 14 14 14 14 14 14
18 18 18 18 18 18 18 18 18 18 18 18 18 18 18 17 17 17 17 17 17 17 17 16 16 16 16 16 16 16 16 16 16 16 16 16 16 16 16 16 16 16 16 16 16 16 16 15 15 15 15 15 15 14 14 14 14 14 14 14 14 14 14 14 14 14 14 13 13
18 18 18 18 18 18 18 18 18 18 18 18 18 18 18 18 18 17 17 17 17 17 17 17 17 16 16 16 16 16 16 16 16 16 16 16 16 16 16 16 16 16 16 16 16 16 16 15 15 15 14 14 14 14 14 14 14 14 14 14 14 14 14 14 13 13 13 13 13
18 18 18 18 18 18 18 18 18 18 18 18 18 18 18 18 18 18 18 17 17 17 17 17 17 17 17 16 16 16 16 16 16 16 16 16 16 16 16 16 16 16 16 16 16 16 15 15 15 14 14 14 14 14 14 14 14 14 14 14 14 14 13 13 13 13 13 12 12
19 19 19 19 18 18 18 18 18 18 18 18 18 18 18 18 18 18 18 18 18 18 18 18 17 17 17 17 16 16 16 16 16 16 16 16 16 16 16 16 16 16 16 16 16 16 15 15 14 14 14 14 14 14 14 14 13 13 13 13 13 13 13 13 13 12 12 12 12
19 19 19 19 19 19 18 18 18 18 18 18 18 18 18 18 18 18 18 18 18 18 18 18 18 17 17 17 17 16 16 16 16 16 16 16 16 16 16 16 16 16 16 16 16 16 15 15 14 14 14 14 14 14 13 13 13 13 12 12 13 13 13 12 12 12 12 12 12
19 19 19 19 19 19 19 19 18 18 18 18 18 18 18 18 18 18 18 18 18 18 18 18 18 18 17 17 17 17 16 16 16 16 16 16 16 16 16 16 16 16 16 16 16 15 15 14 14 14 14 14 14 13 13 13 12 12 12 12 12 12 12 12 12 12 12 11 11
19 19 19 19 19 19 19 19 19 18 18 18 18 18 18 18 18 18 18 18 18 18 18 18 18 18 17 17 17 17 16 16 16 16 16 16 16 16 16 16 16 16 16 16 16 15 15 14 14 14 14 14 14 13 13 12 12 12 12 12 12 12 12 12 12 12 11 11 11
19 19 19 19 19 19 19 19 19 19 19 18 18 19 18 18 18 18 18 18 18 18 18 18 18 18 18 17 17 17 17 16 16 16 16 16 16 16 16 16 16 16 16 16 16 15 15 14 14 14 14 14 13 13 13 12 12 12 12 12 12 12 12 12 11 11 11 11 10
19 19 19 19 19 19 19 19 19 19 19 19 19 19 19 18 18 18 19 19 18 18 18 18 18 18 18 17 17 17 17 17 16 16 16 16 16 16 16 16 16 16 16 16 15 15 14 14 14 14 14 14 13 13 13 12 12 12 12 12 11 11 11 11 11 11 11 10 10
19 19 19 19 19 19 19 19 19 19 19 19 19 19 19 19 19 19 19 19 19 18 18 18 18 18 18 18 17 17 17 17 17 17 16 16 16 16 16 16 16 16 16 16 15 15 14 14 14 14 14 14 13 13 13 12 12 12 12 12 11 11 11 11 11 11 10 10 10
19 19 19 19 19 19 19 19 19 19 19 19 19 19 19 19 19 19 19 19 19 18 18 18 18 18 18 18 18 17 17 17 17 17 17 17 17 16 16 16 16 16 16 16 15 15 14 14 14 14 14 13 13 13 13 13 13 12 12 12 12 11 11 11 11 11 10 10 10
19 19 19 19 19 19 19 19 19 19 19 19 19 19 19 19 19 19 19 19 19 19 18 18 18 18 18 18 18 18 17 17 17 17 17 17 17 17 16 16 16 16 16 16 15 15 14 14 14 14 14 13 13 13 13 13 12 12 12 12 12 11 11 11 11 10 10 10 10
19 20 20 19 19 19 19 19 19 19 19 19 19 19 19 19 19 19 19 19 19 19 18 18 18 18 18 18 18 18 17 17 17 17 17 17 17 17 16 16 16 16 16 15 15 15 14 14 14 14 14 13 13 13 12 12 12 12 12 12 11 11 11 11 10 10 10 10 10
20 20 20 20 19 19 19 19 19 19 19 19 19 19 19 19 19 19 19 19 19 19 19 18 18 18 18 18 18 18 18 17 17 17 17 17 17 17 16 16 16 16 16 15 15 15 14 14 14 14 13 13 13 13 12 12 12 12 12 11 11 11 11 10 10 10 10 10 9
20 20 20 20 19 19 19 19 19 19 19 19 19 19 19 19 19 19 19 19 19 19 19 18 18 18 18 18 18 18 18 17 17 17 17 17 17 17 17 16 16 16 16 15 15 15 14 14 14 13 13 13 13 12 12 12 12 12 11 11 11 10 10 10 10 10 9 9 9
20 20 20 20 19 19 19 19 19 19 19 19 19 19 19 19 19 19 19 19 19 19 19 19 18 18 18 18 18 18 18 18 17 17 17 17 17 17 17 16 16 16 16 15 15 14 14 14 13 13 13 13 12 12 12 12 12 11 11 11 10 10 10 10 9 9 9 9 9
20 20 20 20 19 19 19 19 19 19 19 19 19 19 19 19 19 19 19 19 19 19 19 19 18 18 18 18 18 18 18 18 18 17 17 17 17 17 17 16 16 16 15 15 14 14 14 13 13 13 13 13 12 12 12 12 11 11 11 10 10 10 9 9 9 9 8 8 8
20 20 20 20 20 20 19 19 19 19 19 19 19 19 19 19 19 19 19 19 19 19 19 19 18 18 18 18 18 18 18 18 18 18 17 17 17 17 17 16 16 16 15 15 14 14 13 13 13 13 13 12 12 12 12 11 11 11 10 10 9 9 9 9 8 8 8 8 7
20 20 20 20 20 20 20 19 19 19 19 19 19 19 19 19 19 19 19 19 19 19 19 19 18 18 18 18 18 18 18 18 18 18 17 17 17 17 17 16 16 15 15 14 14 13 13 13 13 13 12 12 12 12 11 11 11 10 9 9 9 8 8 8 8 7 7 7 7
20 20 20 20 20 20 20 19 19 19 19 19 19 19 19 19 19 19 19 19 19 19 19 18 18 18 18 18 18 18 18 18 18 18 18 17 17 17 16 16 15 15 14 14 14 13 13 13 12 12 12 12 11 11 11 11 10 10 9 9 8 8 7 7 7 7 6 6 6
21 20 20 20 19 20 20 20 19 19 19 19 19 19 19 19 19 19 19 19 19 19 19 18 18 18 17 17 17 17 17 17 18 18 17 17 17 16 16 15 15 14 14 14 14 13 13 13 12 12 12 11 11 11 10 10 10 9 9 8 8 7 7 6 6 6 6 6 6
21 21 20 20 19 19 19 20 19 19 19 19 19 19 19 19 19 19 19 19 19 18 18 18 18 17 17 17 17 17 17 17 17 17 17 16 16 15 15 14 14 14 14 14 13 13 13 13 13 12 12 11 11 10 10 9 9 9 8 8 8 7 6 6 5 5 5 5 5
21 20 20 20 19 19 19 19 19 19 19 19 19 19 19 19 19 19 18 18 18 18 18 18 17 17 17 17 17 17 17 17 17 17 16 16 15 15 14 14 13 13 13 13 13 13 13 13 13 12 12 11 11 10 9 9 8 8 7 7 7 6 6 5 5 5 4 4 5
20 20 20 20 19 19 19 19 19 19 19 19 19 19 19 19 19 18 18 18 18 18 18 17 17 17 17 17 17 17 17 17 16 16 16 15 14 14 13 13 13 13 13 13 13 13 13 13 12 12 12 11 11 10 9 8 8 7 7 6 6 6 6 5 5 4 4 4 4
20 20 20 20 20 19 19 19 19 19 19 19 19 19 19 19 19 18 18 18 18 18 17 17 17 17 17 17 16 16 16 16 16 15 14 14 14 13 13 13 13 13 13 13 13 13 13 12 12 12 12 11 10 9 9 8 7 7 6 6 6 5 5 5 5 4 4 4 4
20 20 20 20 20 20 19 19 18 18 19 19 19 19 19 19 18 18 18 18 18 18 17 17 17 16 16 16 16 16 16 15 15 14 14 13 13 13 13 13 13 13 13 13 13 12 12 12 11 11 11 11 10 9 8 7 7 6 6 6 5 5 5 5 5 5 4 4 4
20 20 20 20 20 20 19 19 19 19 19 19 19 19 19 18 18 18 18 18 18 17 17 17 17 16 16 16 16 15 15 14 14 13 13 13 13 13 13 13 13 13 12 12 12 12 12 11 11 11 10 10 10 9 8 7 7 6 6 5 5 5 5 5 5 4 4 4 4
20 20 20 20 20 20 20 19 19 18 18 18 18 18 18 18 18 18 18 17 17 17 17 17 16 16 16 16 15 15 14 14 13 13 13 13 13 13 13 13 12 12 12 12 12 11 11 11 10 10 10 9 9 8 7 7 6 6 6 5 5 5 5 5 4 4 4 4 4
20 20 20 20 20 20 19 19 18 18 18 18 18 18 18 18 18 17 17 17 17 17 17 16 16 16 15 15 14 14 13 13 13 13 13 13 13 13 12 12 12 11 11 11 11 11 10 10 10 9 9 9 8 7 7 6 6 5 5 5 5 4 4 4 4 4 3 3 3
20 20 20 20 20 20 19 18 18 17 17 17 17 17 18 17 17 17 17 17 17 17 16 16 16 16 15 15 14 13 13 13 13 13 13 13 13 12 12 11 11 11 11 11 11 10 10 9 9 9 8 8 7 7 6 6 5 5 5 4 4 4 4 4 4 3 3 3 3
19 20 20 20 20 19 19 18 17 17 16 16 16 17 17 17 17 17 17 16 16 16 16 16 15 15 15 14 14 13 13 13 12 12 12 12 12 12 11 10 10 10 10 10 10 10 9 9 9 8 8 8 7 6 6 5 5 4 4 4 4 3 3 3 3 3 3 3 3
19 19 19 19 19 19 18 18 17 16 16 16 16 16 17 17 17 17 16 16 16 16 15 15 15 14 14 13 13 13 13 12 12 12 12 12 12 11 11 10 9 9 9 9 9 9 9 8 8 8 8 7 6 6 5 5 4 4 4 3 3 3 3 3 3 3 3 3 3
19 19 19 19 19 19 18 18 17 16 16 15 16 16 16 16 16 16 16 16 16 15 15 14 14 13 13 13 13 12 12 12 12 12 12 11 11 11 10 9 9 8 9 9 9 9 8 8 8 8 7 7 6 5 5 4 4 3 3 3 3 3 3 3 3 3 3 3 3
18 19 19 19 19 19 18 18 17 16 16 15 15 16 16 16 16 16 16 16 15 15 14 14 13 13 13 13 12 12 12 12 12 12 11 11 11 11 10 9 8 8 8 8 8 8 8 8 8 8 8 7 6 5 4 4 3 3 3 2 2 2 2 2 3 3 3 3 3
18 18 18 19 19 19 19 18 17 16 16 15 15 16 16 16 16 16 16 15 15 14 14 13 13 13 13 13 12 12 11 11 12 12 11 11 11 10 10 9 8 8 8 8 8 8 8 7 7 8 7 7 6 5 4 4 3 2 2 2 2 2 2 2 2 2 2 2 2
18 18 18 19 19 19 19 18 17 16 16 16 16 16 16 16 16 15 15 15 15 14 14 13 13 13 12 12 12 11 11 11 11 11 11 10 10 10 9 9 8 7 7 7 7 7 7 7 7 7 7 7 6 5 4 3 3 2 2 2 1 1 1 2 2 2 2 2 2
18 18 18 18 19 19 19 18 17 17 16 16 16 16 16 16 15 15 15 14 14 14 13 13 13 12 12 12 11 11 10 10 10 10 10 10 9 9 9 8 8 7 7 7 7 7 7 7 7 7 7 6 6 5 4 3 2 2 1 1 1 1 1 1 1 1 1 1 2
Height
713 714 715 716 717 718 720 722 723 724 726 727 728 730 731 732 733 735 736 737 739 740 741 743 744 746 747 748 750 751 753 754 756 757 758 760 761 763 764 766 767 768 770 771 772 773 775 776 776 777 778 779 780 781 781 782 783 784 785 785 786 787 787 788 789 790 790 791 791
712 714 715 716 717 718 720 721 722 724 725 727 728 729 730 731 732 734 735 736 737 739 740 742 743 745 746 747 749 750 752 754 755 757 758 759 761 762 764 765 767 768 769 770 772 773 774 775 776 776 777 778 779 780 781 782 782 783 784 785 786 787 787 788 788 789 790 790 791
712 713 714 715 717 718 719 721 722 723 725 726 727 728 729 731 732 733 734 736 737 738 740 741 742 744 745 747 748 750 752 753 754 756 757 758 760 762 763 765 766 767 768 770 771 772 773 774 775 775 776 777 778 779 780 781 782 782 783 784 785 786 787 787 788 788 789 789 790
712 713 714 715 716 717 719 720 721 723 724 725 727 728 729 730 731 732 733 735 736 737 739 740 741 743 744 746 747 749 751 752 754 755 756 757 759 761 762 764 765 767 768 769 770 771 772 773 774 774 775 776 777 778 779 780 781 782 783 783 784 785 786 787 787 787 788 788 789
711 712 713 714 716 717 718 719 721 722 723 725 726 727 728 730 731 732 733 734 736 737 738 739 740 742 743 745 747 748 750 752 753 754 755 757 758 760 762 763 765 766 767 768 770 771 772 772 773 773 775 776 777 777 778 779 780 781 782 782 783 784 785 786 786 787 787 788 789
711 712 713 714 715 717 718 719 720 722 723 724 725 727 728 729 730 731 732 733 735 736 737 738 740 741 742 744 746 747 749 750 752 753 754 756 758 760 761 762 764 765 767 768 769 770 771 771 772 773 774 775 776 777 778 779 780 780 781 782 782 784 785 785 786 786 787 787 788
710 711 712 713 715 716 717 718 720 721 722 723 725 726 727 728 729 730 731 732 734 735 737 738 739 740 742 743 745 746 747 749 751 752 754 755 757 759 760 762 763 764 766 767 768 769 770 770 771 772 773 774 775 777 777 778 779 780 780 781 782 783 784 785 786 786 787 787 788
709 711 712 713 714 715 717 718 719 720 722 723 724 725 726 727 728 730 731 732 733 735 736 737 738 739 741 742 743 745 747 748 750 752 753 755 757 758 760 761 762 763 765 766 767 768 769 770 770 771 772 773 775 776 777 777 778 779 780 781 782 782 783 784 785 786 787 787 788
709 710 711 712 713 715 716 717 718 719 721 722 723 724 726 727 728 729 730 732 732 734 735 736 737 739 740 741 742 744 746 747 749 751 752 754 756 757 759 760 761 763 764 765 766 767 768 769 770 771 772 773 774 775 776 777 777 778 779 780 781 782 783 784 785 786 786 787 788
708 710 711 712 713 714 716 717 718 719 720 722 723 724 725 726 727 729 730 731 732 733 735 736 737 738 739 741 742 743 745 747 748 750 752 753 755 756 758 759 760 762 763 764 766 766 767 768 769 770 771 772 773 774 775 776 777 778 779 780 780 781 782 783 784 785 786 787 787
708 709 710 711 712 714 715 716 717 718 720 721 722 723 725 726 727 728 729 731 732 733 734 735 737 737 739 740 741 743 744 746 748 749 751 752 754 755 757 758 759 761 762 763 765 766 766 767 768 769 771 772 773 774 775 776 776 777 778 779 780 781 782 783 784 785 786 786 787
708 709 710 711 712 713 714 716 717 718 719 720 722 723 724 725 727 728 729 730 731 732 734 735 736 737 738 739 741 742 744 746 747 749 750 752 753 754 756 757 759 760 762 763 764 765 765 766 767 769 770 771 772 773 774 775 776 777 778 779 780 781 782 783 784 784 785 786 786
707 708 709 711 712 713 714 715 716 717 718 720 721 722 723 725 726 727 729 730 731 732 733 735 736 737 738 739 741 742 743 745 747 748 749 751 752 754 755 757 758 759 761 762 763 764 765 765 767 768 769 771 772 772 773 774 775 776 777 778 780 781 782 782 783 784 785 785 786
707 708 709 710 711 712 713 714 716 717 718 719 720 722 723 724 726 727 728 729 731 732 733 734 736 737 737 739 740 741 743 744 746 747 748 750 751 753 754 756 757 758 760 761 762 763 764 765 766 767 768 770 771 772 773 774 775 776 777 778 779 780 781 782 782 783 784 785 785
706 707 708 709 710 712 713 714 715 716 717 718 720 721 722 724 725 727 728 729 730 732 733 734 735 736 737 738 739 741 742 744 745 746 748 749 751 752 753 755 756 758 759 760 761 762 763 764 766 767 768 768 770 771 772 773 774 776 777 778 779 780 781 781 782 783 783 784 785
705 706 707 708 710 711 712 713 714 716 717 718 719 720 722 723 724 726 727 728 730 731 732 733 734 736 737 738 739 740 742 743 744 746 747 748 750 751 752 754 755 757 758 759 760 762 763 764 765 766 767 768 769 771 772 773 774 775 777 778 778 779 780 781 781 782 783 783 784
704 705 706 707 709 710 711 712 714 715 716 717 718 720 721 722 724 725 727 728 729 731 732 733 734 735 736 737 738 740 741 742 743 745 746 747 748 750 751 753 754 756 757 758 759 761 762 763 765 766 767 767 769 770 772 773 774 775 776 777 778 779 779 780 781 782 782 783 784
703 704 705 707 708 709 710 712 713 714 715 717 718 719 721 722 723 725 726 727 729 730 731 732 733 734 735 737 738 739 740 742 743 744 745 747 748 749 750 752 753 755 756 757 759 760 762 763 764 765 766 767 768 770 771 772 774 775 776 777 777 778 779 780 780 781 782 783 784
702 703 704 706 707 708 710 711 712 713 715 716 717 718 720 721 722 724 725 727 728 729 730 732 732 734 735 736 737 738 739 741 742 743 745 746 747 748 750 751 752 754 755 757 758 759 761 762 763 764 765 767 768 769 771 772 773 774 776 776 777 778 778 779 780 781 782 782 783
702 702 703 705 707 708 709 710 711 712 714 715 717 718 719 720 722 723 725 726 727 729 730 731 732 733 734 735 737 738 739 740 742 743 744 745 747 748 749 750 752 753 754 756 757 758 759 761 762 763 765 766 767 769 770 772 773 774 775 776 777 777 778 779 780 781 782 782 783
701 702 703 704 705 707 708 709 711 712 713 714 716 717 718 720 721 722 724 725 727 728 729 730 731 732 733 735 736 737 738 740 741 742 743 745 746 747 748 749 751 752 753 755 756 757 758 760 761 763 764 766 767 768 770 771 772 774 775 776 777 777 778 779 780 781 782 782 783
701 701 702 703 704 706 707 709 710 711 712 713 715 716 717 719 720 722 723 725 726 727 729 730 730 732 733 734 735 737 738 739 741 742 743 744 745 747 747 748 750 751 752 753 754 755 757 759 761 762 764 766 767 768 769 770 772 773 774 775 776 777 778 779 780 781 782 782 783
699 700 701 702 703 704 706 707 709 710 712 712 714 715 717 718 719 721 722 724 725 727 728 729 730 731 732 733 735 736 737 739 740 741 742 744 745 746 747 747 748 749 750 751 753 754 756 758 760 762 763 765 766 767 768 770 771 772 774 775 776 777 778 779 780 781 782 782 783
698 699 700 701 702 703 704 706 708 709 711 712 713 714 716 717 719 720 722 723 724 726 727 728 729 730 732 733 734 736 737 738 739 741 742 743 744 744 744 745 746 747 749 750 752 753 755 757 759 761 762 764 765 767 768 769 770 772 773 774 775 777 778 779 780 781 782 782 783
697 698 699 701 702 702 703 705 707 708 709 711 712 713 715 716 718 719 721 722 724 725 726 727 728 730 731 733 734 735 736 737 739 740 741 741 742 742 743 744 745 747 748 750 752 753 754 756 758 760 762 763 765 766 767 768 770 771 772 773 774 776 777 779 780 781 782 782 782
696 697 698 700 701 702 702 704 705 707 708 710 711 712 714 715 717 718 720 721 723 724 726 727 728 729 731 732 733 735 736 737 738 738 738 739 740 740 742 743 744 746 748 750 752 753 754 755 757 758 760 762 764 765 767 768 770 771 772 773 774 775 776 778 780 781 782 783 783
695 696 697 698 700 702 702 703 705 706 707 709 710 711 712 714 716 717 719 720 722 723 725 726 727 729 730 731 733 734 735 736 737 737 737 737 738 740 741 742 744 746 748 750 751 752 754 755 756 758 759 761 763 764 766 768 769 771 772 773 774 775 776 777 779 781 782 783 784
695 695 696 697 699 701 702 703 704 705 707 708 709 710 712 713 715 716 718 720 721 723 724 725 727 728 730 731 732 733 734 735 735 736 736 737 738 739 741 742 744 746 747 749 751 752 753 755 756 757 759 760 762 764 765 767 769 771 772 773 774 775 776 777 779 781 782 783 784
694 695 695 696 698 700 702 702 704 705 706 707 708 709 710 712 713 715 717 719 720 722 723 725 726 728 729 730 732 732 733 734 734 735 736 737 738 739 740 742 743 746 747 749 750 752 753 754 756 757 758 759 761 763 765 767 768 770 772 773 774 775 776 777 779 780 782 783 784
693 694 694 695 697 699 700 702 703 704 705 707 707 709 710 711 712 714 716 717 719 721 722 724 725 727 728 730 731 732 732 733 734 734 735 736 737 738 740 742 743 745 747 748 750 751 752 754 755 756 757 759 760 762 764 766 768 769 771 772 774 775 776 777 778 780 781 782 783
693 693 694 694 696 697 699 701 702 703 705 706 707 708 709 710 711 713 714 716 718 720 722 723 725 727 728 729 730 730 731 732 733 734 735 736 737 738 740 742 743 745 747 748 749 751 752 753 755 756 757 758 760 762 764 766 767 769 770 772 773 775 776 777 778 780 781 782 782
692 693 693 694 695 696 698 700 702 703 704 706 707 707 708 709 710 712 714 716 717 719 721 722 724 726 727 728 729 730 731 732 733 734 734 735 737 738 740 742 743 745 746 747 749 750 752 753 754 756 757 758 760 762 764 766 767 769 770 772 773 775 776 777 778 780 781 782 782
692 692 692 693 694 695 697 699 702 703 705 706 707 707 708 709 710 712 714 715 717 718 720 722 723 724 726 727 728 729 730 731 732 733 734 735 737 738 740 742 743 745 746 747 748 750 751 753 754 755 757 758 760 762 764 766 767 769 771 772 774 775 776 777 779 780 781 782 782
692 692 692 692 693 695 697 699 702 703 705 707 707 708 708 708 710 712 714 715 717 718 719 721 722 723 724 725 727 728 730 731 732 733 734 736 737 738 740 742 743 744 745 747 748 749 751 752 754 755 757 758 760 762 764 766 768 770 772 773 775 776 777 778 779 780 781 782 783
691 691 691 691 692 694 696 699 701 703 705 707 708 708 707 708 709 711 713 715 716 718 719 720 721 722 724 725 726 728 729 731 732 733 734 735 737 738 740 742 743 744 745 746 747 749 750 752 753 755 757 758 760 762 764 766 768 770 772 773 775 776 777 778 780 781 782 783 784
690 690 690 690 691 693 695 697 700 702 705 707 707 707 707 708 709 710 712 714 716 717 718 719 721 722 723 725 726 727 728 729 731 732 734 735 737 738 740 741 743 744 745 746 747 748 750 752 753 754 756 758 760 762 764 766 768 770 772 773 775 776 777 778 780 781 782 783 785
689 690 690 689 689 691 693 696 699 701 704 706 707 707 707 708 709 710 712 713 715 716 717 718 720 721 723 724 726 727 728 729 730 732 733 735 736 737 739 741 743 744 745 746 747 748 750 751 752 753 755 757 759 761 764 766 768 770 772 773 775 776 777 779 780 782 783 784 786
688 688 689 688 687 688 690 693 697 700 702 705 706 707 707 707 708 710 711 712 713 715 716 717 719 720 722 723 725 726 727 728 729 731 732 734 736 737 738 740 742 744 745 746 747 748 749 751 752 753 754 755 757 760 763 765 767 770 772 773 775 777 778 779 781 782 784 785 787
687 687 687 687 686 686 687 691 695 698 701 703 705 706 707 707 707 708 709 711 712 713 715 717 718 720 721 722 724 725 727 728 729 730 732 733 735 736 737 739 742 744 745 746 747 747 749 750 752 752 753 754 757 759 762 764 767 769 771 773 775 777 778 780 781 783 785 786 787
686 686 686 686 685 684 685 689 692 696 699 702 704 705 706 706 706 707 708 710 711 712 714 716 717 719 720 722 723 725 726 728 729 730 731 732 734 735 737 738 740 742 744 746 746 747 748 750 751 752 753 754 756 758 761 763 766 768 771 773 775 777 778 780 782 783 785 787 788
684 684 684 684 684 684 685 687 690 693 697 699 702 703 704 705 705 707 708 709 711 712 713 715 717 718 719 721 722 724 726 727 729 730 731 732 734 735 736 737 739 742 744 745 746 747 748 750 751 752 752 754 756 758 760 763 765 768 770 772 774 776 777 780 782 784 786 787 788
Wind_Speed
19 19 19 19 19 19 20 20 21 21 21 21 21 21 21 21 21 21 21 21 21 21 22 23 23 23 23 24 25 26 25 24 24 24 23 23 23 22 22 21 21 20 20 21 21 21 20 20 19 19 19 19 19 18 18 18 17 17 16 15 14 13 13 13 14 14 14 13 13
19 19 18 18 18 19 19 20 21 21 22 22 22 22 22 22 21 21 21 22 22 22 22 22 23 23 23 24 25 26 26 25 24 24 24 23 23 22 22 22 21 21 21 21 21 21 21 20 20 19 19 19 18 18 17 17 17 17 16 15 14 13 12 13 13 14 14 14 14
19 19 18 18 19 19 19 19 20 21 22 22 22 22 22 22 22 21 22 22 22 22 22 22 23 24 24 24 25 25 26 25 25 24 24 23 23 22 22 22 22 21 21 21 21 21 21 20 20 20 20 19 19 18 18 17 17 17 17 15 14 14 13 13 13 14 14 15 14
19 19 18 18 19 19 19 19 20 21 21 21 22 22 22 21 21 21 22 22 22 22 22 22 23 23 24 24 25 25 26 25 25 24 24 23 23 23 23 23 23 22 22 21 21 21 21 21 20 20 21 20 19 19 18 18 18 18 17 16 15 15 15 14 13 14 15 15 15
19 18 18 18 19 20 19 19 20 20 21 21 21 21 21 21 21 21 21 22 22 22 22 22 22 23 24 25 25 26 26 25 25 25 24 24 24 24 23 23 23 23 22 22 21 21 21 21 20 20 20 20 20 19 19 19 19 18 18 17 16 15 15 14 13 14 15 16 16
18 18 18 18 19 20 19 19 20 20 20 20 21 20 20 20 20 21 21 22 22 22 21 21 22 22 24 25 25 26 26 26 25 25 25 25 24 24 24 24 24 23 23 22 21 21 21 21 20 20 19 19 19 19 19 19 19 18 18 17 17 16 16 14 13 13 14 15 15
18 18 18 19 20 20 20 20 20 20 20 20 20 20 20 20 20 21 21 21 21 21 21 21 21 22 23 25 26 26 26 26 26 25 25 25 25 25 24 24 24 23 23 22 22 21 21 21 20 19 19 18 18 18 18 18 18 18 17 17 17 17 17 16 15 13 13 13 13
17 18 19 19 20 20 20 20 21 21 20 20 20 20 20 20 20 20 20 20 21 21 21 21 21 22 23 25 26 26 26 26 26 26 25 25 25 25 24 24 24 23 23 23 22 22 21 21 20 20 19 18 17 17 17 17 17 17 17 17 17 17 18 18 17 16 14 13 13
17 18 18 19 20 20 20 21 21 21 21 20 20 20 20 20 20 20 20 20 20 21 21 21 21 22 23 24 25 25 25 25 26 26 25 25 25 25 25 24 24 23 23 23 22 22 21 21 20 20 19 18 17 17 16 16 16 15 15 15 15 16 16 17 17 16 15 15 14
16 17 18 19 20 20 20 21 21 21 21 20 20 20 20 20 20 20 20 20 20 20 21 21 21 22 23 24 24 25 25 25 25 25 25 25 25 25 25 24 24 23 23 23 22 22 21 21 20 20 19 18 17 17 16 16 16 16 15 15 15 15 15 14 14 14 14 14 14
16 17 18 18 20 20 20 21 21 21 21 20 20 20 20 20 20 20 19 19 20 20 20 21 21 22 23 24 24 24 24 24 25 25 25 24 24 24 24 24 24 23 23 23 22 22 21 21 20 20 19 18 17 17 17 17 17 17 16 16 15 15 14 13 12 12 12 13 13
16 17 17 18 19 20 20 21 21 21 21 20 20 20 20 20 20 20 19 19 19 20 20 21 21 22 23 23 24 24 24 24 24 24 24 24 24 24 24 24 24 23 23 23 23 22 21 21 21 20 19 18 18 18 18 18 18 17 17 16 16 15 14 13 12 11 12 12 13
17 17 17 18 19 20 20 21 20 20 20 20 20 20 20 20 20 20 19 19 19 20 20 21 21 22 23 23 24 24 24 24 24 24 24 24 24 24 24 24 24 23 23 22 22 22 21 21 21 20 19 18 18 18 19 19 18 17 17 16 15 15 14 13 12 12 12 12 13
17 17 17 17 18 19 20 20 20 20 20 20 20 20 20 20 20 20 20 19 19 20 20 21 21 22 22 23 24 24 24 24 24 24 24 24 24 24 24 24 24 23 23 22 22 22 21 21 20 20 19 19 19 19 19 18 18 17 16 15 15 15 14 14 13 13 13 13 13
17 17 17 17 18 19 20 20 20 20 20 20 20 20 20 20 21 21 20 19 19 20 20 21 22 22 22 23 23 24 24 24 24 24 24 24 24 24 24 24 24 23 23 22 22 22 21 21 20 20 20 19 19 19 19 18 17 16 16 15 15 15 15 15 14 14 14 14 14
18 18 17 18 18 19 19 20 19 19 20 20 20 20 20 20 21 21 20 20 20 20 20 21 22 22 22 22 23 23 23 24 24 24 25 25 25 25 25 25 24 24 23 22 22 22 21 21 20 20 20 20 19 19 18 17 17 16 16 16 16 16 16 16 15 14 14 14 15
19 18 18 18 18 19 20 20 19 19 20 20 20 20 20 20 21 21 21 20 20 20 20 21 22 22 22 22 23 23 23 24 24 24 25 25 25 25 25 25 24 24 23 23 22 22 21 21 20 20 20 20 19 19 18 18 17 17 17 17 16 16 16 16 15 15 15 15 15
20 19 18 18 18 19 20 20 20 20 20 20 20 20 20 20 21 21 21 21 21 20 21 21 21 22 22 23 23 23 24 24 24 24 25 25 25 25 25 25 24 24 23 23 22 22 21 21 21 21 21 20 20 19 19 19 19 18 18 18 17 17 17 16 15 15 15 15 15
20 20 19 18 18 19 20 21 21 20 20 21 21 21 20 21 21 22 22 21 21 21 21 21 21 22 22 23 23 23 23 24 24 24 24 24 25 25 25 24 24 24 23 23 22 22 22 22 23 23 22 21 21 20 20 20 20 19 19 18 18 17 17 16 16 15 15 15 15
19 20 20 19 19 19 20 21 21 21 21 21 21 21 21 21 21 22 22 22 22 21 20 21 21 21 22 22 23 23 23 23 23 24 24 24 24 24 24 24 25 24 24 23 23 23 24 24 24 24 23 22 22 22 21 21 20 19 19 18 18 17 17 16 16 15 15 15 15
18 19 20 20 20 20 20 20 21 21 21 21 22 22 21 21 21 22 23 22 22 21 20 20 21 22 22 22 22 22 22 22 23 23 23 24 24 24 24 24 25 25 25 25 25 25 26 25 25 24 24 23 22 22 22 21 20 19 19 18 18 17 16 16 16 16 15 15 15
18 19 20 21 21 21 20 20 20 21 21 21 22 22 22 21 22 22 23 23 22 21 21 20 21 22 22 23 22 22 22 22 22 23 23 23 23 23 24 25 26 27 27 27 27 27 27 26 25 24 24 23 23 22 22 21 21 20 19 19 18 17 17 16 16 16 16 16 16
19 19 19 20 21 22 21 21 21 21 21 21 22 22 22 22 22 22 23 23 23 22 21 20 21 22 23 22 22 22 21 22 22 22 22 22 23 24 25 27 28 29 29 28 28 28 28 27 26 25 24 23 23 23 22 22 21 21 20 20 19 18 17 17 17 17 17 17 17
19 19 19 20 21 22 22 22 21 21 21 21 22 22 23 22 22 22 23 23 23 22 21 20 21 22 22 22 22 21 21 22 22 22 22 22 23 25 27 29 30 30 30 29 29 29 29 28 27 26 25 24 24 23 23 22 22 22 22 22 21 20 19 18 18 18 18 18 18
18 19 19 19 20 21 22 22 22 21 21 21 22 22 23 23 22 22 23 24 24 22 20 20 21 22 22 22 22 21 22 22 22 22 23 23 25 27 29 30 31 30 30 29 29 29 29 28 27 27 26 25 24 24 23 22 22 23 23 23 23 22 21 21 20 19 19 19 19
17 18 19 19 19 19 20 22 22 22 22 21 22 22 23 23 23 23 23 24 24 22 20 20 21 22 23 22 22 22 22 22 22 23 24 26 27 29 30 31 31 30 30 29 29 29 28 28 27 27 26 26 25 24 24 23 23 23 24 24 24 24 24 23 22 20 20 19 19
16 18 19 19 19 19 19 20 21 21 22 22 22 23 23 24 23 23 23 24 24 22 20 20 21 22 23 22 22 22 22 22 22 24 26 27 28 29 30 30 30 30 30 29 29 28 28 27 27 27 26 26 25 25 25 25 24 24 24 24 24 24 24 24 23 22 21 20 19
16 17 18 19 19 19 19 20 20 21 22 22 22 23 24 24 24 23 24 24 24 22 21 20 21 22 22 22 23 22 22 22 23 24 26 27 28 29 29 30 30 30 30 29 28 28 27 27 27 27 26 26 26 25 25 26 26 25 24 24 24 24 25 24 24 23 22 22 21
17 17 17 18 19 19 20 20 20 21 21 22 22 23 23 24 24 24 25 25 24 23 21 21 21 22 22 22 23 23 23 24 24 25 26 27 28 29 30 30 30 30 30 29 28 28 27 27 27 27 26 26 26 26 26 26 26 26 25 24 24 25 25 25 24 24 23 23 22
17 17 17 17 18 19 20 20 20 21 21 21 22 22 23 24 25 25 26 26 25 23 22 22 22 22 22 23 23 24 24 24 25 26 27 28 28 29 30 30 30 30 30 30 29 28 28 28 28 27 27 27 27 27 27 27 27 26 26 25 25 25 25 25 25 25 24 24 23
17 17 17 17 18 19 20 20 21 21 21 21 21 22 23 24 25 25 26 26 25 24 23 22 22 22 22 23 24 25 25 25 25 27 28 28 29 29 29 30 30 30 30 30 29 29 28 28 28 28 28 28 28 28 28 28 27 27 27 26 26 26 25 25 25 25 25 25 24
17 17 16 17 17 18 19 19 19 20 20 21 21 21 22 23 24 25 26 26 25 24 23 23 22 22 22 23 24 25 25 25 26 26 27 28 28 29 29 30 30 31 31 31 30 29 29 29 29 29 29 28 28 28 29 28 27 27 27 26 26 26 26 25 25 25 25 25 25
17 16 16 16 16 16 16 17 17 17 18 20 20 21 22 23 24 25 25 25 25 24 24 24 23 23 24 24 25 25 25 26 26 27 27 28 28 29 30 30 31 31 32 31 30 30 30 30 30 30 29 29 29 29 29 28 27 27 26 26 25 25 25 25 25 25 25 24 24
18 16 15 15 14 14 14 15 15 16 16 18 19 20 23 24 25 24 24 24 24 24 24 24 25 25 25 26 26 26 26 26 26 27 28 28 28 29 30 30 30 31 32 32 31 31 31 31 31 31 30 30 30 30 29 29 28 27 26 26 25 25 25 25 25 25 24 24 24
18 16 15 14 13 13 13 14 15 15 15 16 17 20 24 26 26 26 25 24 23 23 23 24 25 25 26 26 26 26 26 26 27 27 28 28 29 29 30 30 30 31 32 32 32 32 32 32 32 32 32 31 31 30 30 30 29 28 27 27 26 25 25 25 25 24 24 24 23
20 18 16 15 14 14 14 14 14 14 14 15 17 20 24 25 26 26 26 25 23 22 23 23 24 25 26 26 26 26 27 28 28 28 29 29 30 30 30 30 31 32 32 32 32 32 33 33 33 33 33 32 31 31 31 31 30 29 28 27 26 26 25 25 24 24 23 23 23
22 20 18 17 17 16 15 15 15 14 14 15 17 20 23 24 25 25 26 26 24 23 23 24 25 25 26 26 26 27 28 29 29 29 29 30 30 31 31 31 32 32 33 33 33 34 34 34 35 35 34 33 33 32 32 31 30 29 29 28 27 26 25 24 24 23 22 22 21
24 22 20 19 19 18 17 15 15 16 16 16 18 20 23 24 24 25 25 26 26 25 25 25 26 26 27 27 27 27 28 30 30 30 30 30 31 32 32 33 33 33 33 34 34 35 35 35 35 35 35 34 34 34 33 32 31 30 29 28 27 25 24 24 23 22 21 20 20
25 24 22 21 20 19 18 16 16 17 18 18 20 21 23 24 25 25 26 27 28 28 27 27 27 27 27 28 28 28 28 29 30 31 31 31 32 33 34 35 35 34 34 35 35 35 36 36 36 36 35 35 35 35 34 32 31 30 29 28 27 25 24 23 22 21 20 19 19
25 24 23 21 20 20 20 19 18 19 20 20 21 22 23 25 25 26 27 28 28 28 28 28 28 28 28 28 28 28 28 29 29 30 32 32 33 34 35 36 36 36 35 35 36 36 36 36 36 36 35 35 35 35 34 33 32 30 29 27 26 25 24 23 22 21 20 19 17
23 24 23 22 21 21 21 22 22 22 22 23 24 24 25 26 26 26 27 27 27 28 28 27 28 28 28 29 29 29 29 29 29 30 31 33 33 35 36 37 38 37 36 36 36 37 37 37 36 36 36 36 35 35 34 33 32 30 29 27 26 26 25 24 22 21 19 18 17
Wind_Direction
171 173 175 176 174 172 170 168 167 167 167 168 169 170 171 171 171 171 172 173 175 177 180 182 183 184 184 185 185 186 186 187 187 186 186 186 186 187 188 189 190 190 190 190 190 190 190 192 192 190 187 187 187 187 188 188 188 188 188 190 191 194 196 196 195 195 195 192 186
174 176 177 177 175 173 170 168 167 167 167 169 170 171 172 172 171 171 173 174 176 178 179 181 183 184 184 185 186 186 187 187 187 186 186 186 186 187 188 189 190 190 190 189 189 189 190 191 189 186 183 182 182 182 183 184 184 184 184 185 186 188 190 192 194 195 193 189 185
175 177 177 177 175 173 171 168 167 167 168 169 171 172 172 172 172 172 173 175 177 178 179 181 183 184 184 185 186 187 187 187 186 185 185 185 186 188 189 190 190 190 189 189 189 189 189 190 187 182 179 178 178 178 178 179 180 180 179 179 180 182 184 186 189 190 188 185 185
176 177 177 177 175 174 172 169 167 167 168 170 171 172 173 173 173 173 174 175 176 177 178 179 181 183 184 184 185 186 187 186 185 184 184 185 186 188 190 190 190 190 189 188 188 189 189 188 185 181 178 178 178 177 176 176 176 176 175 175 177 178 180 182 183 182 181 180 184
177 178 177 176 175 174 173 171 169 169 169 170 171 172 173 173 173 173 173 174 175 177 178 178 178 180 182 184 185 185 186 186 185 184 184 185 187 189 190 191 190 190 189 189 189 189 189 187 183 181 180 181 181 179 178 178 177 176 175 176 177 178 179 179 178 176 175 175 179
179 179 178 176 175 174 174 173 171 171 171 171 172 173 173 174 173 173 173 174 175 176 176 175 176 178 180 182 184 185 185 185 185 184 185 185 187 189 190 191 190 190 189 189 189 189 188 185 182 181 182 184 185 185 185 184 183 182 182 182 183 183 183 183 180 177 174 174 176
181 180 179 177 175 175 175 174 174 173 172 172 173 174 174 175 174 174 173 174 174 174 174 174 175 176 178 181 182 184 184 184 184 185 185 186 187 189 190 190 190 189 189 189 189 189 187 184 181 180 181 184 185 188 191 192 193 192 192 192 193 194 193 194 194 191 187 184 186
184 183 181 178 177 176 176 176 175 174 174 174 175 176 176 176 175 174 174 174 174 174 173 174 175 176 177 179 181 182 183 184 184 185 186 187 188 189 189 189 189 189 189 188 188 187 184 182 181 179 179 180 183 187 191 195 196 196 196 197 199 202 203 203 205 206 206 206 207
188 187 184 181 179 178 178 177 176 175 175 176 177 177 177 177 176 175 174 174 174 174 174 174 175 176 177 178 179 181 182 183 184 185 186 187 187 188 188 188 188 188 188 188 187 185 182 179 179 178 177 177 179 182 185 188 189 188 189 193 197 201 204 207 209 212 214 216 218
191 189 187 184 181 180 180 179 178 177 177 177 178 178 178 178 177 176 176 175 175 174 174 175 175 176 177 177 178 179 181 182 183 184 185 186 187 187 187 187 187 187 187 187 186 183 179 176 175 175 176 177 177 177 178 179 179 178 180 187 192 196 200 204 207 210 213 215 217
192 192 190 186 184 182 181 180 179 178 178 178 179 179 179 179 178 178 177 176 175 175 175 175 176 176 176 176 177 178 180 181 182 183 184 185 186 186 186 186 186 186 185 185 184 181 176 173 172 172 173 176 176 174 173 174 175 175 178 183 189 193 196 199 203 205 206 207 209
193 193 192 189 185 183 183 181 180 179 179 179 180 180 180 180 179 178 178 177 176 176 176 176 176 176 175 175 176 177 178 179 180 182 183 184 185 185 185 185 185 184 184 184 182 179 175 172 170 170 172 174 174 173 173 173 174 176 178 183 188 192 194 198 200 200 198 197 200
193 194 193 190 187 185 184 183 180 180 180 180 181 181 181 181 180 179 179 179 178 177 176 176 177 176 175 175 175 176 177 178 179 180 181 182 183 183 184 184 183 183 183 182 181 178 174 171 170 170 171 173 174 174 175 175 177 179 182 186 191 194 197 198 197 194 191 191 193
194 194 193 190 187 186 185 183 181 181 181 181 182 182 182 182 181 181 181 181 180 178 177 177 177 177 176 175 175 176 176 177 177 178 179 180 181 181 182 182 181 181 181 181 180 177 174 171 171 172 172 173 174 175 176 178 181 184 188 192 195 197 198 197 194 190 187 186 187
194 195 193 190 187 186 185 184 183 182 182 182 183 183 183 183 183 183 183 183 181 179 178 177 177 178 177 177 176 176 176 176 176 177 177 178 179 180 179 179 179 179 179 179 178 176 174 173 172 172 173 173 174 175 177 180 184 189 194 198 199 198 196 193 190 187 186 185 183
195 195 193 190 187 186 185 185 183 183 183 183 183 183 184 183 183 184 185 184 182 180 179 178 178 178 178 178 177 176 176 176 176 176 177 177 178 178 178 177 177 178 177 176 175 174 174 173 173 173 174 174 174 175 177 181 185 189 194 198 199 197 194 191 188 186 186 187 183
194 195 194 191 188 187 186 185 184 183 183 183 184 184 184 184 184 184 185 185 183 181 180 180 179 178 178 178 177 177 176 176 177 177 177 177 177 177 176 176 176 176 176 174 173 172 172 173 173 174 174 175 174 175 177 180 184 187 190 193 194 193 191 189 187 186 186 187 185
192 194 195 193 190 188 187 186 185 184 183 184 184 185 185 184 184 184 186 186 184 183 181 181 180 180 179 178 177 177 177 177 177 178 178 177 177 176 176 176 176 175 174 173 171 172 172 172 172 173 174 174 173 174 175 179 181 184 187 189 189 188 187 186 186 185 185 184 184
192 192 194 194 193 190 188 186 185 184 184 184 185 186 186 185 184 184 185 186 186 184 183 182 181 181 180 179 178 178 178 178 178 178 178 177 177 177 176 176 175 175 173 172 171 171 172 172 172 172 173 172 172 172 174 177 179 181 183 185 185 184 184 183 184 184 183 182 180
194 192 193 194 195 193 190 188 186 185 184 184 185 186 186 186 185 184 185 186 186 185 184 183 182 181 180 179 178 178 178 178 178 178 178 177 177 177 176 176 175 173 172 171 170 170 171 171 172 174 174 173 172 172 173 175 176 179 180 181 181 180 181 181 181 180 179 178 176
200 196 194 194 195 194 192 189 188 186 185 184 185 186 187 186 185 185 185 186 186 185 185 185 183 181 179 178 178 178 178 178 178 178 177 177 177 177 176 175 174 172 171 170 170 170 171 172 173 176 177 176 175 174 174 174 175 177 178 177 176 176 177 177 176 175 173 172 170
204 202 199 196 195 193 192 190 189 188 186 185 185 186 187 187 186 185 185 185 185 186 186 186 183 180 178 177 177 177 177 177 177 177 177 177 177 177 176 175 173 171 170 169 170 170 171 172 174 177 178 177 177 177 176 175 174 175 175 173 171 170 170 170 169 168 167 166 165
204 204 202 199 195 193 191 190 190 190 188 186 185 185 186 187 186 185 184 184 185 186 187 186 182 179 177 177 176 176 175 175 176 176 176 176 176 176 175 174 172 170 169 169 170 170 170 171 173 176 177 177 177 177 176 174 173 172 171 168 165 162 161 161 161 161 160 159 159
202 203 203 200 196 192 190 189 190 191 190 188 186 185 186 187 186 185 184 183 184 185 186 184 181 178 177 176 175 175 174 174 173 174 175 175 176 175 174 172 171 170 169 171 172 173 172 171 172 174 176 177 176 175 174 173 172 171 168 164 160 156 154 154 154 154 153 153 152
202 201 201 200 198 194 190 188 190 191 192 189 187 185 186 186 186 184 183 182 183 184 184 181 178 177 175 174 174 174 173 172 173 174 175 175 175 173 171 169 169 169 170 172 175 177 177 176 175 175 175 175 174 173 171 171 171 169 166 161 157 152 149 147 147 148 148 148 147
206 203 201 199 199 197 193 190 190 191 192 191 188 186 186 186 185 183 182 182 182 183 181 178 176 175 174 174 174 173 173 173 174 176 176 174 172 170 168 167 167 168 171 174 177 179 180 180 180 179 177 175 172 169 166 165 166 165 162 158 154 151 147 144 142 142 143 143 143
210 206 202 198 199 200 198 193 191 192 193 192 189 186 185 184 183 181 180 180 181 181 179 177 176 174 174 174 173 173 173 175 176 177 177 174 169 166 164 164 166 169 172 176 179 181 182 182 181 181 179 176 172 169 164 161 160 159 156 152 150 149 146 143 141 139 138 138 138
211 207 203 198 198 200 199 196 193 193 194 194 191 187 184 182 181 180 179 179 179 178 176 175 175 174 173 173 173 174 176 178 178 176 174 171 167 165 164 165 167 171 174 178 180 181 182 182 181 181 179 175 171 168 164 159 156 153 150 148 147 146 145 143 142 140 138 136 135
211 208 204 200 198 198 197 196 195 195 195 195 193 188 183 181 179 179 178 177 177 176 174 173 173 172 172 173 174 176 178 179 177 173 169 166 165 165 166 167 169 173 176 178 180 181 182 181 180 179 178 175 169 165 161 157 154 151 148 147 147 147 146 144 143 141 139 137 135
211 208 204 201 197 197 197 196 195 195 196 196 195 190 184 180 179 177 176 176 175 174 174 173 172 172 173 174 175 176 177 176 174 170 167 165 164 166 168 170 172 174 176 179 180 181 181 179 178 177 175 172 167 162 158 156 153 151 149 148 149 148 147 145 144 142 140 138 136
211 207 203 200 197 197 197 196 195 194 194 196 196 193 187 179 177 176 175 174 174 174 174 173 172 172 174 175 176 175 175 173 171 169 168 167 166 167 169 171 172 174 176 179 180 180 179 177 175 173 171 168 164 160 157 155 153 151 150 149 149 149 147 146 145 143 142 140 138
212 207 203 200 198 198 198 198 197 195 194 197 197 195 187 178 175 173 173 172 173 173 173 172 172 173 174 174 175 174 173 170 169 168 169 169 168 169 170 171 172 173 176 178 178 178 176 173 171 169 167 164 160 157 155 153 151 150 148 148 148 147 146 145 144 144 144 143 142
211 206 202 199 197 196 195 197 199 199 199 202 202 194 182 174 173 173 173 173 174 174 174 174 174 174 174 173 172 171 170 169 169 170 170 171 170 170 170 169 170 172 174 176 176 174 172 169 167 165 163 160 156 154 151 149 147 145 144 144 144 145 145 145 145 145 145 146 146
210 205 199 195 192 189 188 193 198 203 207 210 206 191 178 172 171 173 174 175 176 176 176 176 176 177 177 176 173 170 169 169 169 170 171 172 172 171 169 167 167 170 172 173 173 170 168 166 164 162 159 156 152 149 147 145 143 141 140 141 141 143 144 145 146 146 148 149 149
208 203 195 186 180 176 178 185 194 202 209 212 201 186 175 171 172 173 175 176 177 176 175 175 176 177 177 176 174 172 170 169 170 170 171 172 172 170 167 165 165 168 170 170 169 167 164 163 161 160 157 153 149 146 144 142 140 139 139 139 140 141 143 145 146 148 150 152 153
207 201 191 178 169 164 165 172 182 192 201 205 196 185 177 173 174 175 176 177 176 173 172 172 173 173 173 172 172 173 172 172 171 171 171 172 171 169 166 163 163 165 167 167 166 164 163 161 160 158 155 151 146 144 143 141 139 139 139 139 139 141 143 145 147 150 153 155 157
206 202 192 178 165 157 156 163 172 183 192 197 194 187 181 178 176 175 175 175 173 171 170 171 171 171 172 171 171 173 175 176 174 171 170 172 171 169 164 161 160 162 164 165 164 163 162 161 160 159 155 150 146 144 143 140 139 138 137 137 138 140 142 145 148 151 154 156 158
207 204 197 184 169 159 155 160 170 180 189 195 195 191 185 179 176 175 174 174 172 171 171 172 173 173 174 174 174 174 176 177 176 173 171 171 172 169 165 160 159 160 162 163 163 162 162 162 161 160 157 152 148 146 143 141 138 137 136 135 136 138 140 143 146 149 153 156 158
208 206 204 195 180 168 163 166 173 182 190 195 197 194 187 180 177 176 175 175 175 175 174 174 174 175 176 176 174 173 174 175 176 175 173 172 172 171 167 161 159 159 162 163 163 163 162 162 162 161 159 155 151 148 145 142 139 137 136 134 134 134 136 139 142 145 149 153 157
209 207 206 202 190 178 172 173 179 185 190 194 196 195 189 182 178 176 176 176 177 177 177 175 175 175 176 175 173 171 170 171 173 174 174 173 172 171 168 163 159 159 161 163 163 163 163 162 162 161 159 156 153 150 147 143 140 137 136 134 133 132 132 135 137 140 143 148 152
210 207 206 204 196 186 178 178 181 185 188 191 194 193 189 182 178 175 174 174 175 176 176 174 174 174 174 173 172 169 167 167 168 171 172 171 170 168 166 162 160 159 160 162 163 163 162 162 162 161 159 156 153 151 148 145 141 137 135 135 134 132 130 131 134 137 140 144 146